Location: Ammerl�gen
(47.2167°N, 9.6000°E)
Time: 01:53:53
(UTC+00:00)

ISS - Pass Details

Date: 03 October 2021
Orbit: 417 x 423 km, 51.6° (Epoch: 25 October)

Event Time Altitude Azimuth Distance (km) Brightness Sun altitude
Rises 18:19:01 0° 293° (WNW) 2,366 1.7 -14.7°
Reaches altitude 10° 18:21:09 10° 287° (WNW) 1,501 0.4 -15.1°
Maximum altitude 18:24:24 45° 213° (SSW) 581 -2.9 -15.6°
Enters shadow 18:26:01 24° 153° (SSE) 905 -2.4 -15.9°
